Time,TemperatureF,DewpointF,PressureIn,WindDirection,WindDirectionDegrees,WindSpeedMPH,WindSpeedGustMPH,Humidity,HourlyPrecipIn,Conditions,Clouds,dailyrainin,SoftwareType,DateUTC
2013-01-08 00:03:00,34.0,-99.9,-100.00,SSW,194,1.0,3.0,-999,0.00,,,0.00,,2013-01-08 06:03:00,
2013-01-08 00:12:00,34.0,-99.9,-100.00,SSW,194,1.0,3.0,-999,0.00,,,0.00,,2013-01-08 06:12:00,
2013-01-08 00:23:00,34.0,-99.9,-100.00,SSW,194,1.0,3.0,-999,0.00,,,0.00,,2013-01-08 06:23:00,
2013-01-08 00:33:00,35.0,-99.9,-100.00,SSW,202,3.0,6.0,-999,0.00,,,0.00,,2013-01-08 06:33:00,
2013-01-08 00:43:00,35.0,-99.9,-100.00,SSW,202,3.0,6.0,-999,0.00,,,0.00,,2013-01-08 06:43:00,
2013-01-08 00:53:00,35.0,-99.9,-100.00,SSW,202,3.0,6.0,-999,0.00,,,0.00,,2013-01-08 06:53:00,
2013-01-08 01:02:00,35.0,-99.9,-100.00,SSW,205,4.0,7.0,-999,0.00,,,0.00,,2013-01-08 07:02:00,
2013-01-08 01:12:00,35.0,-99.9,-100.00,SSW,205,4.0,7.0,-999,0.00,,,0.00,,2013-01-08 07:12:00,
2013-01-08 01:22:00,35.0,-99.9,-100.00,SSW,205,4.0,7.0,-999,0.00,,,0.00,,2013-01-08 07:22:00,
2013-01-08 01:32:00,35.0,-99.9,-100.00,South,177,1.0,2.0,-999,0.00,,,0.00,,2013-01-08 07:32:00,
2013-01-08 01:42:00,35.0,-99.9,-100.00,South,177,1.0,2.0,-999,0.00,,,0.00,,2013-01-08 07:42:00,
2013-01-08 01:53:00,35.0,-99.9,-100.00,South,177,1.0,2.0,-999,0.00,,,0.00,,2013-01-08 07:53:00,
2013-01-08 02:02:00,35.0,-99.9,-100.00,South,182,3.0,7.0,-999,0.00,,,0.00,,2013-01-08 08:02:00,
2013-01-08 02:12:00,35.0,-99.9,-100.00,South,182,3.0,7.0,-999,0.00,,,0.00,,2013-01-08 08:12:00,
2013-01-08 02:22:00,35.0,-99.9,-100.00,South,182,3.0,7.0,-999,0.00,,,0.00,,2013-01-08 08:22:00,
2013-01-08 02:33:00,34.0,-99.9,-100.00,SSW,206,2.0,3.0,-999,0.00,,,0.00,,2013-01-08 08:33:00,
2013-01-08 02:42:00,34.0,-99.9,-100.00,SSW,206,2.0,3.0,-999,0.00,,,0.00,,2013-01-08 08:42:00,
2013-01-08 02:53:00,34.0,-99.9,-100.00,SSW,206,2.0,3.0,-999,0.00,,,0.00,,2013-01-08 08:53:00,
2013-01-08 03:02:00,34.0,-99.9,-100.00,South,177,1.0,3.0,-999,0.00,,,0.00,,2013-01-08 09:02:00,
2013-01-08 03:12:00,34.0,-99.9,-100.00,South,177,1.0,3.0,-999,0.00,,,0.00,,2013-01-08 09:12:00,
2013-01-08 03:22:00,34.0,-99.9,-100.00,South,177,1.0,3.0,-999,0.00,,,0.00,,2013-01-08 09:22:00,
2013-01-08 03:33:00,34.0,-99.9,-100.00,SSE,155,2.0,4.0,-999,0.00,,,0.00,,2013-01-08 09:33:00,
2013-01-08 03:43:00,34.0,-99.9,-100.00,SSE,155,2.0,4.0,-999,0.00,,,0.00,,2013-01-08 09:43:00,
2013-01-08 03:53:00,34.0,-99.9,-100.00,SSE,155,2.0,4.0,-999,0.00,,,0.00,,2013-01-08 09:53:00,
2013-01-08 04:03:00,33.0,-99.9,-100.00,SSE,167,2.0,2.0,-999,0.00,,,0.00,,2013-01-08 10:03:00,
2013-01-08 04:12:00,33.0,-99.9,-100.00,SSE,167,2.0,2.0,-999,0.00,,,0.00,,2013-01-08 10:12:00,
2013-01-08 04:22:00,33.0,-99.9,-100.00,SSE,167,2.0,2.0,-999,0.00,,,0.00,,2013-01-08 10:22:00,
2013-01-08 04:33:00,33.0,-99.9,-100.00,South,186,1.0,1.0,-999,0.00,,,0.00,,2013-01-08 10:33:00,
2013-01-08 04:43:00,33.0,-99.9,-100.00,South,186,1.0,1.0,-999,0.00,,,0.00,,2013-01-08 10:43:00,
2013-01-08 04:53:00,33.0,-99.9,-100.00,South,186,1.0,1.0,-999,0.00,,,0.00,,2013-01-08 10:53:00,
2013-01-08 05:02:00,33.0,-99.9,-100.00,South,179,1.0,2.0,-999,0.00,,,0.00,,2013-01-08 11:02:00,
2013-01-08 05:12:00,33.0,-99.9,-100.00,South,179,1.0,2.0,-999,0.00,,,0.00,,2013-01-08 11:12:00,
2013-01-08 05:23:00,33.0,-99.9,-100.00,South,179,1.0,2.0,-999,0.00,,,0.00,,2013-01-08 11:23:00,
2013-01-08 05:33:00,33.0,-99.9,-100.00,South,182,1.0,2.0,-999,0.00,,,0.00,,2013-01-08 11:33:00,
2013-01-08 05:43:00,33.0,-99.9,-100.00,South,182,1.0,2.0,-999,0.00,,,0.00,,2013-01-08 11:43:00,
2013-01-08 05:53:00,33.0,-99.9,-100.00,South,182,1.0,2.0,-999,0.00,,,0.00,,2013-01-08 11:53:00,
2013-01-08 06:00:00,32.0,-99.9,-100.00,South,175,2.0,4.0,-999,0.00,,,0.00,,2013-01-08 12:00:00,
2013-01-08 06:03:00,32.0,-99.9,-100.00,South,171,3.0,5.0,-999,0.00,,,0.00,,2013-01-08 12:03:00,
2013-01-08 06:12:00,32.0,-99.9,-100.00,South,171,3.0,5.0,-999,0.00,,,0.00,,2013-01-08 12:12:00,
2013-01-08 06:22:00,32.0,-99.9,-100.00,South,171,3.0,5.0,-999,0.00,,,0.00,,2013-01-08 12:22:00,
2013-01-08 06:33:00,32.0,-99.9,-100.00,South,175,2.0,4.0,-999,0.00,,,0.00,,2013-01-08 12:33:00,
2013-01-08 06:43:00,32.0,-99.9,-100.00,South,175,2.0,4.0,-999,0.00,,,0.00,,2013-01-08 12:43:00,
2013-01-08 06:53:00,32.0,-99.9,-100.00,South,175,2.0,4.0,-999,0.00,,,0.00,,2013-01-08 12:53:00,
2013-01-08 07:33:00,32.0,-99.9,-100.00,SSE,165,4.0,6.0,-999,0.00,,,0.00,,2013-01-08 13:33:00,
2013-01-08 07:43:00,32.0,-99.9,-100.00,SSE,165,4.0,6.0,-999,0.00,,,0.00,,2013-01-08 13:43:00,
2013-01-08 07:53:00,32.0,-99.9,-100.00,SSE,165,4.0,6.0,-999,0.00,,,0.00,,2013-01-08 13:53:00,
2013-01-08 08:03:00,32.0,-99.9,-100.00,SSE,166,2.0,3.0,-999,0.00,,,0.00,,2013-01-08 14:03:00,
2013-01-08 08:13:00,32.0,-99.9,-100.00,SSE,166,2.0,3.0,-999,0.00,,,0.00,,2013-01-08 14:13:00,
2013-01-08 08:23:00,32.0,-99.9,-100.00,SSE,166,2.0,3.0,-999,0.00,,,0.00,,2013-01-08 14:23:00,
2013-01-08 08:33:00,31.0,-99.9,-100.00,South,171,2.0,3.0,-999,0.00,,,0.00,,2013-01-08 14:33:00,
2013-01-08 08:44:00,31.0,-99.9,-100.00,South,171,2.0,3.0,-999,0.00,,,0.00,,2013-01-08 14:44:00,
2013-01-08 08:53:00,31.0,-99.9,-100.00,South,171,2.0,3.0,-999,0.00,,,0.00,,2013-01-08 14:53:00,
2013-01-08 09:03:00,32.0,-99.9,-100.00,SSW,198,1.0,2.0,-999,0.00,,,0.00,,2013-01-08 15:03:00,
2013-01-08 09:12:00,32.0,-99.9,-100.00,SSW,198,1.0,2.0,-999,0.00,,,0.00,,2013-01-08 15:12:00,
2013-01-08 09:23:00,32.0,-99.9,-100.00,SSW,198,1.0,2.0,-999,0.00,,,0.00,,2013-01-08 15:23:00,
2013-01-08 09:33:00,33.0,-99.9,-100.00,South,179,1.0,3.0,-999,0.00,,,0.00,,2013-01-08 15:33:00,
2013-01-08 09:43:00,33.0,-99.9,-100.00,South,179,1.0,3.0,-999,0.00,,,0.00,,2013-01-08 15:43:00,
2013-01-08 09:53:00,33.0,-99.9,-100.00,South,179,1.0,3.0,-999,0.00,,,0.00,,2013-01-08 15:53:00,
2013-01-08 10:03:00,34.0,-99.9,-100.00,South,191,1.0,2.0,-999,0.00,,,0.00,,2013-01-08 16:03:00,
2013-01-08 10:13:00,34.0,-99.9,-100.00,South,191,1.0,2.0,-999,0.00,,,0.00,,2013-01-08 16:13:00,
2013-01-08 10:23:00,34.0,-99.9,-100.00,South,191,1.0,2.0,-999,0.00,,,0.00,,2013-01-08 16:23:00,
2013-01-08 10:34:00,35.0,-99.9,-100.00,South,173,2.0,3.0,-999,0.00,,,0.00,,2013-01-08 16:34:00,
2013-01-08 10:43:00,35.0,-99.9,-100.00,South,173,2.0,3.0,-999,0.00,,,0.00,,2013-01-08 16:43:00,
2013-01-08 10:53:00,35.0,-99.9,-100.00,South,173,2.0,3.0,-999,0.00,,,0.00,,2013-01-08 16:53:00,
2013-01-08 11:04:00,36.0,-99.9,-100.00,South,183,2.0,4.0,-999,0.00,,,0.00,,2013-01-08 17:04:00,
2013-01-08 11:13:00,36.0,-99.9,-100.00,South,183,2.0,4.0,-999,0.00,,,0.00,,2013-01-08 17:13:00,
2013-01-08 11:23:00,36.0,-99.9,-100.00,South,183,2.0,4.0,-999,0.00,,,0.00,,2013-01-08 17:23:00,
2013-01-08 11:34:00,37.0,-99.9,-100.00,South,176,4.0,7.0,-999,0.00,,,0.00,,2013-01-08 17:34:00,
2013-01-08 11:43:00,37.0,-99.9,-100.00,South,176,4.0,7.0,-999,0.00,,,0.00,,2013-01-08 17:43:00,
2013-01-08 11:54:00,37.0,-99.9,-100.00,South,176,4.0,7.0,-999,0.00,,,0.00,,2013-01-08 17:54:00,
2013-01-08 12:04:00,38.0,-99.9,-100.00,SSE,167,5.0,8.0,-999,0.00,,,0.00,,2013-01-08 18:04:00,
2013-01-08 12:13:00,38.0,-99.9,-100.00,SSE,167,5.0,8.0,-999,0.00,,,0.00,,2013-01-08 18:13:00,
2013-01-08 12:24:00,38.0,-99.9,-100.00,SSE,167,5.0,8.0,-999,0.00,,,0.00,,2013-01-08 18:24:00,
2013-01-08 12:34:00,39.0,-99.9,-100.00,SSE,165,6.0,8.0,-999,0.00,,,0.00,,2013-01-08 18:34:00,
2013-01-08 12:43:00,39.0,-99.9,-100.00,SSE,165,6.0,8.0,-999,0.00,,,0.00,,2013-01-08 18:43:00,
2013-01-08 12:53:00,39.0,-99.9,-100.00,SSE,165,6.0,8.0,-999,0.00,,,0.00,,2013-01-08 18:53:00,
2013-01-08 13:04:00,40.0,-99.9,-100.00,South,172,4.0,6.0,-999,0.00,,,0.00,,2013-01-08 19:04:00,
2013-01-08 13:12:00,40.0,-99.9,-100.00,South,172,4.0,6.0,-999,0.00,,,0.00,,2013-01-08 19:12:00,
2013-01-08 13:23:00,40.0,-99.9,-100.00,South,172,4.0,6.0,-999,0.00,,,0.00,,2013-01-08 19:23:00,
2013-01-08 13:33:00,41.0,-99.9,-100.00,South,171,5.0,7.0,-999,0.00,,,0.00,,2013-01-08 19:33:00,
2013-01-08 13:43:00,41.0,-99.9,-100.00,South,171,5.0,7.0,-999,0.00,,,0.00,,2013-01-08 19:43:00,
2013-01-08 13:53:00,41.0,-99.9,-100.00,South,171,5.0,7.0,-999,0.00,,,0.00,,2013-01-08 19:53:00,
2013-01-08 14:03:00,42.0,-99.9,-100.00,SSE,167,4.0,9.0,-999,0.00,,,0.00,,2013-01-08 20:03:00,
2013-01-08 14:12:00,42.0,-99.9,-100.00,SSE,167,4.0,9.0,-999,0.00,,,0.00,,2013-01-08 20:12:00,
2013-01-08 14:23:00,42.0,-99.9,-100.00,SSE,167,4.0,9.0,-999,0.00,,,0.00,,2013-01-08 20:23:00,
2013-01-08 14:33:00,42.0,-99.9,-100.00,South,177,7.0,10.0,-999,0.00,,,0.00,,2013-01-08 20:33:00,
2013-01-08 14:43:00,42.0,-99.9,-100.00,South,177,7.0,10.0,-999,0.00,,,0.00,,2013-01-08 20:43:00,
2013-01-08 14:54:00,42.0,-99.9,-100.00,South,177,7.0,10.0,-999,0.00,,,0.00,,2013-01-08 20:54:00,
2013-01-08 15:03:00,43.0,-99.9,-100.00,SSE,165,8.0,12.0,-999,0.00,,,0.00,,2013-01-08 21:03:00,
2013-01-08 15:13:00,43.0,-99.9,-100.00,SSE,165,8.0,12.0,-999,0.00,,,0.00,,2013-01-08 21:13:00,
2013-01-08 15:23:00,43.0,-99.9,-100.00,SSE,165,8.0,12.0,-999,0.00,,,0.00,,2013-01-08 21:23:00,
2013-01-08 15:34:00,43.0,-99.9,-100.00,SSE,168,9.0,13.0,-999,0.00,,,0.00,,2013-01-08 21:34:00,
2013-01-08 15:43:00,43.0,-99.9,-100.00,SSE,168,9.0,13.0,-999,0.00,,,0.00,,2013-01-08 21:43:00,
2013-01-08 15:53:00,43.0,-99.9,-100.00,SSE,168,9.0,13.0,-999,0.00,,,0.00,,2013-01-08 21:53:00,
2013-01-08 16:04:00,43.0,-99.9,-100.00,SSE,166,9.0,15.0,-999,0.00,,,0.00,,2013-01-08 22:04:00,
2013-01-08 16:13:00,43.0,-99.9,-100.00,SSE,166,9.0,15.0,-999,0.00,,,0.00,,2013-01-08 22:13:00,
2013-01-08 16:23:00,43.0,-99.9,-100.00,SSE,166,9.0,15.0,-999,0.00,,,0.00,,2013-01-08 22:23:00,
2013-01-08 16:33:00,43.0,-99.9,-100.00,SSE,165,11.0,16.0,-999,0.00,,,0.00,,2013-01-08 22:33:00,
2013-01-08 16:43:00,43.0,-99.9,-100.00,SSE,165,11.0,16.0,-999,0.00,,,0.00,,2013-01-08 22:43:00,
2013-01-08 16:53:00,43.0,-99.9,-100.00,SSE,165,11.0,16.0,-999,0.00,,,0.00,,2013-01-08 22:53:00,
2013-01-08 17:03:00,43.0,-99.9,-100.00,SSE,167,8.0,12.0,-999,0.00,,,0.00,,2013-01-08 23:03:00,
2013-01-08 17:13:00,43.0,-99.9,-100.00,SSE,167,8.0,12.0,-999,0.00,,,0.00,,2013-01-08 23:13:00,
2013-01-08 17:23:00,43.0,-99.9,-100.00,SSE,167,8.0,12.0,-999,0.00,,,0.00,,2013-01-08 23:23:00,
2013-01-08 17:33:00,41.0,-99.9,-100.00,SSE,155,8.0,14.0,-999,0.00,,,0.00,,2013-01-08 23:33:00,
2013-01-08 17:43:00,41.0,-99.9,-100.00,SSE,155,8.0,14.0,-999,0.00,,,0.00,,2013-01-08 23:43:00,
2013-01-08 17:53:00,41.0,-99.9,-100.00,SSE,155,8.0,14.0,-999,0.00,,,0.00,,2013-01-08 23:53:00,
2013-01-08 18:03:00,41.0,-99.9,-100.00,SSE,160,6.0,10.0,-999,0.00,,,0.00,,2013-01-09 00:03:00,
2013-01-08 18:13:00,41.0,-99.9,-100.00,SSE,160,6.0,10.0,-999,0.00,,,0.00,,2013-01-09 00:13:00,
2013-01-08 18:23:00,41.0,-99.9,-100.00,SSE,160,6.0,10.0,-999,0.00,,,0.00,,2013-01-09 00:23:00,
2013-01-08 18:33:00,41.0,-99.9,-100.00,SSE,156,11.0,14.0,-999,0.00,,,0.00,,2013-01-09 00:33:00,
2013-01-08 18:43:00,41.0,-99.9,-100.00,SSE,156,11.0,14.0,-999,0.00,,,0.00,,2013-01-09 00:43:00,
2013-01-08 18:53:00,41.0,-99.9,-100.00,SSE,156,11.0,14.0,-999,0.00,,,0.00,,2013-01-09 00:53:00,
2013-01-08 19:03:00,41.0,-99.9,-100.00,SSE,157,8.0,11.0,-999,0.00,,,0.00,,2013-01-09 01:03:00,
2013-01-08 19:12:00,41.0,-99.9,-100.00,SSE,157,8.0,11.0,-999,0.00,,,0.00,,2013-01-09 01:12:00,
2013-01-08 19:22:00,41.0,-99.9,-100.00,SSE,157,8.0,11.0,-999,0.00,,,0.00,,2013-01-09 01:22:00,
2013-01-08 19:30:00,41.0,-99.9,-100.00,South,191,4.0,8.0,-999,0.00,,,0.00,,2013-01-09 01:30:00,
2013-01-08 19:33:00,41.0,-99.9,-100.00,SSW,204,5.0,11.0,-999,0.00,,,0.00,,2013-01-09 01:33:00,
2013-01-08 19:43:00,41.0,-99.9,-100.00,SSW,204,5.0,11.0,-999,0.00,,,0.00,,2013-01-09 01:43:00,
2013-01-08 19:53:00,41.0,-99.9,-100.00,SSW,204,5.0,11.0,-999,0.00,,,0.00,,2013-01-09 01:53:00,
2013-01-08 20:03:00,41.0,-99.9,-100.00,South,191,4.0,8.0,-999,0.00,,,0.00,,2013-01-09 02:03:00,
2013-01-08 20:12:00,41.0,-99.9,-100.00,South,191,4.0,8.0,-999,0.00,,,0.00,,2013-01-09 02:12:00,
2013-01-08 20:23:00,41.0,-99.9,-100.00,South,191,4.0,8.0,-999,0.00,,,0.00,,2013-01-09 02:23:00,
2013-01-08 20:43:00,40.0,-99.9,-100.00,South,171,4.0,8.0,-999,0.00,,,0.00,,2013-01-09 02:43:00,
2013-01-08 20:53:00,40.0,-99.9,-100.00,South,171,4.0,8.0,-999,0.00,,,0.00,,2013-01-09 02:53:00,
2013-01-08 21:03:00,41.0,-99.9,-100.00,SSW,201,2.0,5.0,-999,0.00,,,0.00,,2013-01-09 03:03:00,
2013-01-08 21:12:00,41.0,-99.9,-100.00,SSW,201,2.0,5.0,-999,0.00,,,0.00,,2013-01-09 03:12:00,
2013-01-08 21:22:00,41.0,-99.9,-100.00,SSW,201,2.0,5.0,-999,0.00,,,0.00,,2013-01-09 03:22:00,
2013-01-08 21:33:00,41.0,-99.9,-100.00,SSW,212,5.0,10.0,-999,0.00,,,0.00,,2013-01-09 03:33:00,
2013-01-08 21:43:00,41.0,-99.9,-100.00,SSW,212,5.0,10.0,-999,0.00,,,0.00,,2013-01-09 03:43:00,
2013-01-08 21:53:00,41.0,-99.9,-100.00,SSW,212,5.0,10.0,-999,0.00,,,0.00,,2013-01-09 03:53:00,
2013-01-08 22:02:00,41.0,-99.9,-100.00,South,185,4.0,7.0,-999,0.00,,,0.00,,2013-01-09 04:02:00,
2013-01-08 22:12:00,41.0,-99.9,-100.00,South,185,4.0,7.0,-999,0.00,,,0.00,,2013-01-09 04:12:00,
2013-01-08 22:23:00,41.0,-99.9,-100.00,South,185,4.0,7.0,-999,0.00,,,0.00,,2013-01-09 04:23:00,
2013-01-08 22:33:00,40.0,-99.9,-100.00,South,184,4.0,8.0,-999,0.00,,,0.00,,2013-01-09 04:33:00,
2013-01-08 22:43:00,40.0,-99.9,-100.00,South,184,4.0,8.0,-999,0.00,,,0.00,,2013-01-09 04:43:00,
2013-01-08 22:53:00,40.0,-99.9,-100.00,South,184,4.0,8.0,-999,0.00,,,0.00,,2013-01-09 04:53:00,
2013-01-08 23:04:00,40.0,-99.9,-100.00,SSW,207,5.0,10.0,-999,0.00,,,0.00,,2013-01-09 05:04:00,
2013-01-08 23:12:00,40.0,-99.9,-100.00,SSW,207,5.0,10.0,-999,0.00,,,0.00,,2013-01-09 05:12:00,
2013-01-08 23:22:00,40.0,-99.9,-100.00,SSW,207,5.0,10.0,-999,0.00,,,0.00,,2013-01-09 05:22:00,
2013-01-08 23:33:00,41.0,-99.9,-100.00,SW,216,11.0,15.0,-999,0.00,,,0.00,,2013-01-09 05:33:00,
2013-01-08 23:43:00,41.0,-99.9,-100.00,SW,216,11.0,15.0,-999,0.00,,,0.00,,2013-01-09 05:43:00,
2013-01-08 23:53:00,41.0,-99.9,-100.00,SW,216,11.0,15.0,-999,0.00,,,0.00,,2013-01-09 05:53:00,